Notices

What's New in latest Release from April 7th, 2021:

- Updated Glossary, including Speed of Maximum Gust, and Total Hourly Precipitation

- Updated national and regional climate services offices contacts and prices information

- Addition of station inventory lists for 1981-2010, 1971-2000, and 1961-1990 Normals.

If you haven't already, please take our survey and provide feedback about our website: https://eccc.sondage-survey.ca/f/LanguageSelection.aspx?s=442ca660-fcf1-47c0-95a9-59707d6fd709

Hourly Data Report for September 12, 2015

IQALUIT CLIMATE
NUNAVUT

63°44'50.000" N
68°32'40.000" W
33.50 m
2402592
71321
XFB

Download Data

Hourly Data (September 2015)
Hourly Data Report for September 12, 2015
TIME
LST
Temp Definition
°C
Dew Point Definition
°C
Rel Hum Definition
%
Precip. Amount Definition
mm

Wind Dir Definition
10's deg

Wind Spd Definition
km/h
Visibility Definition
km
Stn Press Definition
kPa
Hmdx Definition


Wind Chill Definition


Weather Definition


00:00 0.8 -0.6 91 0.0 0 1   101.18     LegendNANA
01:00 -1.2 -2.6 90 0.0 2 4   101.18   -3 LegendNANA
02:00 -0.2 -1.2 93 0.0 3 2   101.17   -1 LegendNANA
03:00 -0.5 -1.8 91 0.0   0   101.19     LegendNANA
04:00 -2.5 -3.7 91 0.0 31 2   101.21   -3 LegendNANA
05:00 -0.7 -1.6 94 0.0 36 3   101.21   -2 LegendNANA
06:00 0.5 -0.4 94 0.0 0 1   101.21     LegendNANA
07:00 1.5 -0.1 89 0.0   0   101.20     LegendNANA
08:00 2.5 0.3 85 0.0 12 4   101.17     LegendNANA
09:00 2.9 0.4 84 0.0 17 4   101.15     LegendNANA
10:00 3.4 0.6 82 0.0 15 6   101.13     LegendNANA
11:00 3.6 0.7 81 0.0 17 7   101.06     LegendNANA
12:00 3.5 0.7 82 0.0 15 9   101.05     LegendNANA
13:00 4.4 1.1 79 0.0 14 8   101.01     LegendNANA
14:00 4.4 0.7 77 0.0 16 10   101.01     LegendNANA
15:00 4.4 0.7 77 0.0 15 11   100.99     LegendNANA
16:00 3.7 0.8 82 0.0 16 12   100.97     LegendNANA
17:00 3.9 0.4 78 0.0 15 12   100.95     LegendNANA
18:00 4.0 0.2 76 0.0 14 14   100.93     LegendNANA
19:00 4.0 -0.2 74 0.0 13 16   100.92     LegendNANA
20:00 3.5 -0.1 77 0.0 16 4   100.91     LegendNANA
21:00 1.9 -0.3 85 0.0 11 10   100.88     LegendNANA
22:00 0.7 -0.4 93 0.0 15 12   100.88     LegendNANA
23:00 -0.4 -0.8 98 0.0 15 20   100.91   -6 LegendNANA

Notes on Data Quality.

Legend

  • E = Estimated
  • M = Missing
  • NA = Not Available*
  • [empty] = Indicates an unobserved value
Date modified: